Temperature
18 18 18 18 18 18 18 18 18 18 18 18 18 18 18 18 18 18 18 18 18 18 18 18 18 17 17 17 17 17 17 17 17 16 16 16 16 16 16 16 16 16 16
18 18 18 18 18 18 18 18 18 18 18 18 18 18 18 18 18 18 18 18 18 18 18 18 18 18 18 17 17 17 17 17 17 17 16 16 16 16 16 16 16 16 16
19 18 18 18 18 18 18 18 18 18 18 18 18 18 18 18 18 18 18 18 18 18 18 18 18 18 18 17 17 17 17 17 17 17 16 16 16 16 16 16 16 16 16
19 19 18 18 18 18 18 18 18 18 18 18 18 18 18 18 18 18 18 18 18 18 18 18 18 18 18 17 17 17 17 17 17 17 17 16 16 16 16 16 16 16 16
19 19 19 18 18 18 18 18 18 18 18 18 18 18 19 19 18 18 18 18 18 18 18 18 18 18 18 18 17 17 17 17 17 17 17 17 16 16 16 16 16 16 16
19 19 19 19 18 18 18 18 18 18 18 19 19 19 19 19 19 18 18 18 18 18 18 18 18 18 18 18 18 17 17 17 17 17 17 17 17 16 16 16 16 16 16
19 19 18 18 19 18 18 18 18 18 18 19 19 19 19 19 19 19 19 19 19 18 18 18 18 18 18 18 18 18 17 17 17 17 17 17 17 17 16 16 16 16 16
19 19 19 18 18 18 18 18 18 18 18 18 18 18 19 19 19 19 19 19 19 19 19 18 18 18 18 18 18 18 17 17 17 17 17 17 17 17 16 16 16 16 16
19 19 18 18 18 18 18 18 18 18 18 18 18 18 18 19 19 20 20 19 19 19 19 19 18 18 18 18 18 18 17 17 17 17 17 17 17 17 16 16 16 16 16
19 19 19 18 18 18 18 18 18 18 18 18 18 18 18 19 19 19 19 19 19 19 19 19 19 18 18 18 18 18 17 17 17 17 17 17 17 17 16 16 16 16 16
19 18 18 18 18 18 18 18 18 18 18 18 18 18 18 18 18 18 19 19 19 19 19 19 19 18 18 18 18 17 17 17 17 17 17 17 17 16 16 16 16 16 16
19 19 18 18 18 18 18 18 18 18 18 18 18 18 18 18 18 18 18 18 19 19 19 18 18 18 18 18 18 17 17 17 17 17 17 17 16 16 16 16 16 16 16
18 18 18 18 18 18 18 18 18 18 18 18 18 18 18 18 18 18 18 18 18 18 18 18 18 18 18 18 17 17 17 17 17 17 17 17 16 16 16 16 16 16 16
18 18 18 18 18 18 18 18 18 18 18 18 18 18 18 18 18 18 18 18 18 18 18 18 18 18 17 17 17 17 17 17 17 17 16 16 16 16 16 16 16 16 15
18 18 18 18 18 18 18 17 17 17 17 17 17 17 17 17 17 17 17 17 17 17 17 17 17 17 17 17 17 17 17 17 17 16 16 16 16 16 16 15 15 15 15
18 18 18 18 18 17 17 17 17 17 17 17 17 17 17 17 17 17 17 17 17 17 16 17 17 17 17 17 17 17 16 16 16 16 16 16 16 15 15 15 15 15 15
18 18 18 17 17 17 17 17 17 17 17 17 17 17 17 17 17 17 17 17 17 16 16 16 16 16 16 16 16 16 16 16 15 15 15 15 15 15 15 15 15 14 14
18 17 17 17 17 17 17 17 17 17 17 17 16 16 16 16 16 16 16 16 16 16 16 16 16 16 16 16 16 15 15 15 15 15 15 15 14 14 14 14 14 14 14
17 17 17 17 17 17 16 16 16 16 16 16 16 16 16 16 16 16 16 16 16 15 15 15 15 15 15 15 15 15 15 14 14 14 14 14 14 14 14 13 13 13 13
17 17 17 17 16 16 16 16 16 16 16 15 15 15 15 15 15 15 15 15 15 15 15 15 15 14 15 14 14 14 14 14 13 13 13 13 13 13 13 13 13 13 13
17 16 16 16 16 16 16 16 16 15 15 15 15 15 15 15 15 15 15 14 14 14 14 14 14 14 14 14 14 14 13 13 13 13 13 13 13 12 12 12 12 12 12
16 16 16 16 16 15 15 15 15 15 15 15 15 14 14 14 14 14 14 14 14 14 14 13 13 13 13 13 13 13 13 13 12 12 12 12 12 12 12 11 11 11 11
16 16 15 15 15 15 15 15 15 15 15 14 14 14 14 13 13 13 13 13 13 13 13 13 13 12 12 12 12 12 12 12 12 12 12 11 11 11 11 11 11 11 10
15 15 15 15 15 14 14 14 14 14 14 14 14 13 13 13 13 13 13 13 12 12 12 12 12 12 12 12 12 12 11 12 11 11 11 11 10 10 10 10 10 10 10
15 15 15 14 14 14 14 14 14 14 13 13 13 13 13 13 12 12 12 12 12 12 11 11 11 11 11 11 11 11 11 11 10 10 10 10 10 10 10 10 9 9 9
14 14 14 14 14 14 14 13 13 13 13 12 12 12 12 12 12 12 12 11 11 11 11 11 11 11 11 11 10 10 10 10 10 10 9 10 9 9 9 9 9 9 9
Wind_Speed
3 4 2 3 4 5 6 3 3 2 2 2 3 2 0 1 6 10 12 15 15 14 12 12 11 11 11 10 10 9 9 9 9 9 9 8 8 8 8 8 8 7 7
4 4 3 2 3 3 4 4 3 2 2 2 2 1 1 1 2 8 12 14 15 15 14 13 13 12 12 12 11 11 10 10 10 10 10 10 10 9 9 9 8 8 8
4 3 3 3 3 3 2 2 2 2 3 3 3 3 2 3 3 5 10 12 13 15 16 15 15 14 13 13 13 13 12 12 12 12 12 11 11 11 10 10 10 9 9
6 3 2 3 4 4 3 2 3 3 3 2 3 3 3 4 5 5 7 11 14 14 17 18 17 17 16 15 15 14 14 14 14 14 14 13 13 13 12 12 11 11 11
7 5 3 3 4 3 2 4 3 2 2 3 3 4 4 4 4 6 7 10 12 14 15 19 21 20 18 17 16 16 15 15 15 15 15 15 15 14 14 14 13 13 13
9 7 4 5 5 3 3 3 1 2 2 3 5 4 3 5 5 5 6 8 10 13 15 16 18 19 20 19 19 18 17 17 17 17 17 17 16 16 16 16 15 15 15
9 7 4 4 5 4 4 4 3 4 4 3 3 3 4 5 6 6 5 5 6 10 12 15 16 15 16 22 22 20 19 18 18 18 18 18 17 17 18 17 17 17 16
9 9 6 5 6 4 5 5 4 3 3 3 3 2 2 3 4 7 6 6 6 5 6 11 14 15 13 14 17 21 20 19 19 18 18 19 19 19 18 18 18 18 18
8 7 7 6 5 6 6 6 6 6 4 4 4 3 2 2 2 2 4 4 4 4 4 6 10 13 13 12 14 19 21 20 19 18 18 19 19 20 20 20 19 19 19
7 8 7 7 6 5 5 7 7 6 5 4 3 4 4 2 1 2 2 2 3 4 4 4 5 9 11 10 10 13 18 19 19 18 18 17 18 19 20 20 20 20 20
5 7 6 5 5 5 6 6 5 5 5 5 4 3 5 4 5 4 3 2 2 2 3 3 3 4 8 9 9 10 15 17 16 16 16 16 16 16 17 18 18 18 18
4 6 7 5 6 5 5 5 5 6 6 6 5 4 4 3 3 4 4 4 4 3 2 2 2 2 4 6 8 10 13 15 15 15 14 14 14 13 13 14 15 16 16
3 5 6 5 5 5 5 5 5 6 6 7 6 5 4 4 4 3 4 4 3 3 2 2 2 1 3 4 5 8 11 13 13 13 13 13 12 11 11 11 12 12 12
4 4 4 5 5 6 6 5 5 6 5 5 7 5 4 4 3 3 4 4 4 3 2 3 1 1 2 3 5 8 8 12 12 11 11 10 9 9 9 9 10 10 11
3 2 3 4 4 5 5 4 4 5 4 4 4 4 4 4 3 3 3 3 4 4 3 2 2 2 2 3 5 6 6 10 11 10 9 8 8 7 7 7 8 8 9
2 2 1 2 3 4 3 3 3 4 4 3 3 4 4 3 3 3 3 2 3 3 3 2 2 1 1 1 4 3 4 7 10 9 9 8 8 7 6 6 6 7 7
1 2 2 1 1 1 1 2 2 2 2 2 2 3 3 3 2 2 2 2 2 2 3 3 2 2 1 1 1 1 2 4 5 8 9 9 8 6 6 5 4 4 5
2 2 2 2 2 2 2 0 0 1 0 0 1 1 2 2 1 1 2 2 2 2 2 3 2 2 2 2 1 1 1 2 3 4 6 6 5 5 4 3 3 2 2
2 3 3 3 3 4 3 3 3 3 3 3 3 3 2 2 2 2 1 2 1 2 1 1 2 1 1 2 2 2 1 1 2 3 4 4 4 4 4 3 2 2 2
4 4 4 4 4 4 4 4 4 5 5 5 5 5 5 4 3 2 2 2 1 1 1 0 0 1 1 2 1 1 1 1 2 3 5 5 7 7 6 5 4 3 3
4 5 5 5 5 5 5 5 5 6 6 6 6 7 7 9 10 7 5 5 4 3 2 2 2 2 3 3 2 2 1 2 3 3 2 3 5 5 6 7 7 6 5
5 6 6 6 7 7 10 11 8 7 7 7 6 6 7 8 9 10 11 11 9 5 4 3 3 3 3 3 3 2 2 2 1 2 2 2 3 4 5 6 7 8 8
6 6 6 7 9 10 11 11 11 8 8 8 8 7 7 7 7 6 8 10 11 12 9 5 5 4 3 4 3 3 3 2 1 2 2 2 3 3 4 6 7 8 7
6 6 7 8 8 9 11 10 10 9 9 9 9 9 8 8 9 7 7 8 9 9 8 7 6 5 5 4 3 3 2 2 3 4 4 2 2 2 3 5 6 7 6
7 7 7 8 8 8 11 10 7 7 8 9 9 10 9 9 11 9 7 7 7 6 8 10 9 7 8 9 6 4 4 3 3 3 4 3 2 2 2 2 3 4 3
7 8 9 8 8 8 11 12 8 6 7 7 7 9 13 11 12 11 7 6 6 5 4 4 4 4 5 7 9 6 4 4 3 2 3 3 2 2 1 1 1 2 2
Wind_Direction
160 149 144 164 187 184 177 205 220 190 177 210 232 214 158 59 123 137 150 165 167 171 177 183 186 188 187 189 191 192 192 194 191 190 190 191 189 188 190 189 189 191 192
144 152 166 191 209 203 191 191 200 181 193 227 237 225 183 114 131 141 155 172 178 181 186 191 195 197 198 198 200 201 202 204 201 200 200 203 204 200 200 198 200 201 200
157 173 176 198 211 198 196 207 226 219 212 213 216 220 192 202 193 170 165 172 183 193 196 198 201 204 206 207 207 208 209 210 208 207 208 210 210 208 208 207 209 211 211
174 201 197 205 211 198 190 220 239 227 231 230 216 215 200 193 200 199 195 187 184 193 201 205 205 207 210 213 214 215 215 214 213 213 213 215 215 215 215 215 217 219 220
194 211 218 199 218 217 208 229 201 225 248 250 241 220 213 204 206 214 210 207 198 192 191 202 207 209 211 215 218 219 217 216 215 217 218 219 219 219 220 221 223 224 225
204 212 221 205 224 219 218 237 233 218 251 262 266 257 230 212 204 215 217 217 205 201 198 197 200 211 215 215 218 220 220 218 217 219 220 221 222 222 223 225 227 229 230
207 205 236 201 223 225 217 226 223 233 233 237 263 281 261 232 213 210 215 220 212 211 201 189 191 200 210 218 220 221 221 221 220 220 221 222 223 224 225 227 229 232 233
212 209 212 222 217 220 218 230 226 239 252 223 216 255 284 271 245 225 205 212 215 203 200 195 192 196 200 201 215 221 222 223 224 223 223 224 225 225 226 228 230 232 233
218 229 208 222 225 223 216 216 219 220 238 250 220 204 226 252 279 250 219 214 202 190 207 207 196 194 201 195 200 214 219 222 224 226 227 227 228 229 229 229 231 233 234
227 229 223 223 226 234 229 220 219 219 224 243 247 230 238 247 276 306 297 236 214 203 218 228 206 190 196 197 198 197 209 217 222 227 229 230 231 232 234 234 235 236 236
232 238 230 226 227 235 235 234 229 219 219 228 237 237 237 241 232 234 269 290 286 237 220 229 234 177 188 193 191 192 198 208 214 221 226 229 231 233 236 237 239 240 240
232 238 232 219 223 231 235 235 230 225 227 234 240 245 240 231 231 227 238 254 261 264 246 223 223 189 177 185 196 197 191 199 208 216 222 227 230 233 236 239 241 242 243
245 240 237 222 225 227 227 231 229 236 232 233 234 242 248 247 245 243 244 252 258 255 247 233 224 178 191 170 183 188 188 195 203 210 216 221 227 233 237 241 242 242 243
255 254 235 228 229 231 231 224 234 231 234 237 240 239 248 255 255 251 246 244 260 265 263 257 245 172 170 173 184 177 182 193 196 200 205 212 219 228 233 236 240 242 242
269 268 235 228 228 230 235 230 232 235 226 229 242 250 250 262 264 259 252 239 236 258 270 261 252 245 154 159 168 169 175 188 189 190 195 203 213 222 228 233 237 239 241
318 314 270 237 230 230 226 229 234 227 220 233 239 253 255 261 268 268 261 251 231 232 251 267 261 253 156 176 150 147 182 167 179 186 193 199 204 211 219 228 235 239 241
352 340 3 2 328 281 232 218 237 233 221 247 258 255 255 255 258 274 285 269 252 230 242 270 295 331 8 44 86 146 181 161 176 188 195 198 198 202 210 216 223 232 238
52 29 32 41 29 24 16 26 352 19 23 296 304 322 325 309 313 315 310 295 275 260 239 256 294 334 352 19 26 348 83 142 147 166 187 191 188 188 190 190 182 179 213
71 57 59 55 42 38 34 41 45 36 37 36 34 25 14 19 18 9 352 328 314 298 249 232 274 315 343 356 347 343 28 42 74 106 120 133 136 131 131 136 131 127 133
73 66 64 56 50 45 41 44 51 53 53 47 42 40 33 29 19 8 8 353 345 355 335 292 304 333 341 339 0 331 19 39 52 71 71 91 102 105 102 95 91 91 107
75 70 65 57 48 47 40 46 53 64 60 55 49 50 55 57 55 49 44 27 21 22 19 30 29 30 16 0 351 331 31 57 60 60 77 88 94 90 86 78 74 75 82
72 73 67 63 59 54 44 48 57 64 59 55 53 52 64 62 64 67 64 58 50 45 37 41 34 34 20 12 1 5 39 41 31 26 46 63 93 91 91 86 86 87 87
71 74 71 70 65 48 45 53 56 67 63 54 47 46 55 52 49 68 71 63 55 48 49 59 50 30 27 14 18 22 20 20 17 14 36 41 65 80 83 95 107 106 104
78 77 75 72 71 52 44 52 62 72 67 57 49 46 50 45 37 44 67 66 59 48 46 61 61 48 41 17 17 25 28 34 66 38 24 33 35 51 80 102 120 119 119
80 76 76 74 70 53 38 41 65 81 76 65 58 50 48 48 32 43 66 73 70 67 63 69 72 65 53 42 36 38 31 40 44 42 21 24 15 24 40 96 125 145 147
91 86 78 72 69 58 40 40 56 85 87 83 74 62 51 44 35 37 53 61 63 52 52 57 64 56 54 49 46 41 35 34 37 43 20 17 14 16 7 16 110 174 191
Height
1566 1567 1568 1568 1569 1570 1571 1571 1572 1573 1574 1575 1576 1576 1577 1577 1577 1577 1577 1578 1578 1578 1579 1579 1580 1581 1581 1582 1583 1584 1585 1586 1587 1588 1589 1590 1590 1591 1592 1593 1594 1595 1596
1566 1566 1567 1568 1569 1570 1571 1571 1572 1573 1573 1574 1575 1576 1576 1577 1577 1577 1577 1577 1578 1578 1578 1579 1579 1580 1580 1581 1582 1583 1584 1585 1586 1587 1588 1588 1589 1590 1591 1592 1593 1594 1595
1564 1566 1566 1567 1568 1569 1570 1571 1571 1572 1573 1573 1574 1575 1575 1576 1576 1577 1577 1577 1577 1577 1578 1578 1579 1579 1579 1580 1581 1582 1583 1584 1584 1585 1586 1587 1588 1589 1589 1590 1591 1592 1593
1563 1564 1565 1566 1567 1568 1569 1570 1570 1571 1572 1573 1573 1574 1574 1574 1575 1575 1576 1576 1575 1576 1576 1577 1577 1578 1578 1578 1579 1580 1581 1582 1582 1583 1584 1585 1586 1587 1587 1588 1589 1590 1591
1561 1562 1563 1564 1565 1567 1568 1568 1569 1570 1571 1571 1572 1572 1572 1572 1573 1573 1574 1574 1574 1574 1574 1575 1575 1576 1576 1577 1577 1578 1578 1579 1580 1581 1582 1583 1584 1584 1585 1586 1587 1588 1589
1559 1560 1561 1562 1563 1564 1565 1566 1567 1568 1568 1569 1570 1570 1570 1570 1571 1571 1571 1572 1572 1572 1572 1572 1573 1573 1574 1574 1575 1575 1576 1577 1577 1578 1579 1580 1581 1582 1583 1583 1584 1585 1586
1556 1557 1558 1559 1560 1562 1562 1564 1564 1565 1566 1567 1568 1568 1568 1568 1568 1568 1569 1569 1570 1570 1570 1570 1570 1570 1571 1571 1572 1572 1573 1574 1574 1575 1576 1577 1578 1579 1579 1580 1581 1582 1583
1553 1554 1555 1556 1557 1558 1559 1561 1562 1562 1563 1565 1565 1565 1565 1566 1565 1566 1566 1566 1567 1567 1568 1568 1567 1567 1568 1568 1569 1569 1570 1570 1571 1572 1573 1573 1574 1575 1576 1577 1578 1578 1579
1550 1551 1552 1553 1554 1556 1556 1557 1558 1559 1560 1561 1562 1563 1563 1563 1563 1563 1563 1563 1564 1564 1565 1565 1565 1565 1565 1565 1565 1566 1567 1567 1568 1568 1569 1570 1571 1572 1573 1573 1574 1575 1575
1547 1548 1549 1550 1551 1552 1553 1554 1554 1556 1557 1558 1559 1560 1561 1561 1561 1561 1561 1561 1561 1562 1562 1562 1563 1562 1562 1562 1562 1562 1563 1564 1564 1565 1565 1566 1567 1568 1569 1569 1570 1571 1571
1544 1544 1545 1546 1547 1548 1549 1550 1551 1552 1553 1554 1555 1556 1557 1558 1558 1559 1558 1559 1559 1559 1558 1559 1559 1559 1559 1559 1559 1559 1559 1560 1560 1561 1561 1562 1563 1563 1564 1565 1566 1566 1567
1541 1541 1541 1542 1543 1544 1545 1546 1547 1548 1549 1550 1551 1552 1554 1554 1554 1555 1555 1555 1555 1555 1555 1555 1555 1556 1556 1556 1556 1556 1556 1556 1557 1557 1558 1558 1559 1559 1560 1561 1561 1562 1562
1537 1537 1538 1538 1539 1540 1541 1542 1543 1544 1545 1546 1546 1548 1549 1550 1551 1551 1551 1551 1552 1552 1552 1552 1552 1552 1551 1552 1552 1552 1552 1553 1553 1553 1554 1554 1555 1555 1555 1556 1556 1557 1557
1534 1534 1534 1535 1535 1536 1537 1538 1539 1540 1540 1541 1542 1543 1544 1545 1546 1547 1547 1548 1548 1548 1548 1547 1548 1548 1548 1548 1547 1548 1549 1549 1549 1549 1550 1550 1551 1551 1551 1551 1552 1552 1552
1532 1532 1532 1532 1532 1533 1533 1534 1535 1536 1537 1537 1538 1539 1540 1541 1542 1542 1543 1544 1545 1544 1544 1544 1544 1545 1544 1544 1545 1545 1545 1545 1545 1545 1546 1546 1546 1547 1547 1547 1547 1547 1547
1530 1530 1530 1529 1529 1530 1531 1531 1532 1533 1533 1534 1535 1536 1536 1537 1538 1538 1539 1539 1540 1540 1540 1540 1541 1542 1541 1541 1541 1541 1541 1541 1541 1542 1542 1542 1542 1542 1542 1542 1542 1542 1542
1528 1528 1528 1528 1527 1528 1529 1529 1529 1530 1530 1531 1532 1532 1533 1533 1533 1534 1535 1535 1536 1537 1537 1537 1538 1539 1539 1539 1538 1538 1538 1537 1537 1538 1538 1538 1538 1538 1538 1538 1537 1537 1537
1527 1527 1527 1527 1527 1527 1527 1527 1527 1528 1528 1528 1529 1529 1529 1529 1530 1530 1531 1532 1532 1533 1534 1534 1534 1535 1535 1536 1535 1535 1535 1534 1534 1534 1534 1534 1534 1534 1534 1533 1533 1532 1532
1527 1526 1526 1526 1526 1526 1526 1526 1526 1526 1526 1526 1527 1527 1527 1527 1527 1528 1528 1529 1529 1530 1531 1531 1531 1532 1532 1532 1532 1532 1532 1532 1531 1530 1530 1531 1531 1530 1530 1529 1528 1528 1527
1526 1526 1526 1526 1526 1526 1526 1526 1526 1526 1525 1525 1525 1525 1525 1525 1525 1526 1526 1526 1527 1527 1528 1528 1529 1529 1529 1529 1529 1529 1529 1529 1529 1528 1528 1528 1528 1527 1527 1526 1525 1524 1523
1526 1526 1526 1526 1527 1526 1526 1526 1526 1526 1525 1525 1525 1525 1525 1524 1524 1524 1525 1525 1525 1526 1526 1527 1527 1527 1526 1526 1526 1527 1527 1527 1527 1527 1526 1526 1526 1525 1524 1523 1522 1521 1519
1526 1526 1527 1527 1527 1527 1527 1527 1527 1527 1526 1526 1526 1525 1525 1524 1524 1524 1525 1525 1525 1525 1525 1525 1525 1525 1525 1525 1525 1525 1525 1525 1525 1526 1525 1525 1524 1523 1523 1521 1520 1519 1518
1527 1527 1528 1528 1528 1529 1529 1529 1529 1528 1528 1527 1527 1526 1526 1525 1525 1525 1525 1525 1525 1525 1526 1526 1525 1525 1525 1525 1524 1524 1524 1524 1524 1524 1524 1524 1523 1522 1522 1521 1520 1519 1518
1527 1528 1529 1529 1530 1530 1530 1530 1531 1530 1529 1529 1529 1528 1528 1527 1527 1527 1527 1527 1526 1526 1526 1526 1526 1526 1525 1525 1524 1524 1524 1524 1524 1523 1523 1523 1523 1522 1522 1521 1521 1519 1519
1529 1530 1530 1531 1531 1532 1532 1532 1532 1531 1531 1531 1531 1531 1530 1529 1529 1529 1528 1528 1528 1528 1528 1528 1527 1527 1526 1525 1525 1524 1524 1524 1523 1523 1523 1523 1523 1522 1522 1522 1521 1520 1519
1531 1532 1532 1532 1533 1534 1534 1534 1534 1534 1534 1533 1533 1533 1533 1532 1532 1531 1531 1530 1530 1530 1530 1530 1529 1529 1528 1527 1526 1525 1525 1525 1524 1524 1524 1524 1523 1523 1522 1522 1521 1520 1519